カタログに戻る

YAOGAN 1

運用中軍事SSO
NORAD 29092·PAYLOAD·🇨🇳 China

打ち上げ Apr 26, 2006 から Taiyuan Satellite Launch Center

Loading…

次のパス (今後24時間)

TLE

最新Source: Space-Track

元期: Sep 14, 2026, 11:30 UTC

1 29092U 06015A   26257.47945416  .00000527  00000-0  63517-4 0  9996
2 29092  97.7445 276.3467 0001420  89.3651 270.7728 14.87852627103089

AllMySatでYAOGAN 1をリアルタイム追跡

Download on the App Store